N4NVD-13 Weather Reports


Display with metric or nautical units.
time (UTC)temp
F
wind
direction
speed
MPH
gust
MPH
rain 1hr
in
rain 24hr
in
rain mn
in
humidity
%
barometer
mb
20260508135603 65 98 4.0 4.0 0.00 0.00 0.00 92 1013.1
20260508135059 65 85 3.0 6.0 0.00 0.00 0.00 92 1012.9
20260508134556 64 63 3.0 4.0 0.00 0.00 0.00 93 1012.7
20260508134053 64 85 2.0 4.0 0.00 0.00 0.00 93 1012.6
20260508133550 64 105 2.0 7.0 0.00 0.00 0.00 93 1012.9
20260508133047 64 68 4.0 7.0 0.00 0.00 0.00 93 1012.9
20260508132545 64 93 3.0 6.0 0.00 0.00 0.00 93 1012.7
20260508132041 64 85 2.0 5.0 0.00 0.00 0.00 93 1012.9
20260508131537 63 68 0.0 5.0 0.00 0.00 0.00 93 1012.9
20260508131034 63 57 3.0 6.0 0.00 0.00 0.00 93 1013.0
20260508130531 63 73 6.0 6.0 0.00 0.00 0.00 92 1013.4
20260508130027 63 98 2.0 4.0 0.00 0.00 0.00 93 1013.3
20260508125523 63 354 1.0 4.0 0.00 0.00 0.00 93 1013.0
20260508125021 63 351 3.0 4.0 0.00 0.00 0.00 93 1013.3
20260508124519 63 331 0.0 3.0 0.00 0.00 0.00 93 1013.5
20260508124015 63 27 4.0 5.0 0.00 0.00 0.00 93 1013.2
20260508123514 63 77 2.0 3.0 0.00 0.00 0.00 93 1013.4
20260508123010 63 353 2.0 7.0 0.00 0.00 0.00 93 1013.4
20260508122508 63 36 0.0 5.0 0.00 0.00 0.00 93 1013.4
20260508122004 63 13 5.0 5.0 0.00 0.00 0.00 93 1013.5
20260508121502 63 17 2.0 3.0 0.00 0.00 0.00 93 1013.7
20260508121000 63 52 2.0 3.0 0.00 0.00 0.00 93 1013.7
20260508120457 63 347 3.0 3.0 0.00 0.00 0.00 93 1013.4
20260508115955 63 20 0.0 3.0 0.00 0.00 0.00 93 1013.5
20260508115453 63 352 0.0 3.0 0.00 0.00 0.00 93 1013.4
20260508114949 63 27 3.0 3.0 0.00 0.00 0.00 93 1013.3
20260508114446 63 74 2.0 3.0 0.00 0.00 0.00 93 1013.2
20260508113942 63 19 2.0 3.0 0.00 0.00 0.00 93 1013.3
20260508113440 63 42 3.0 5.0 0.00 0.00 0.00 93 1013.6
20260508112937 63 18 2.0 3.0 0.00 0.00 0.00 93 1013.4
20260508112434 63 10 3.0 3.0 0.00 0.00 0.00 93 1013.3
20260508111930 63 0 0.0 3.0 0.00 0.00 0.00 93 1013.3
20260508111428 63 29 1.0 2.0 0.00 0.00 0.00 93 1013.3
20260508110925 63 71 0.0 3.0 0.00 0.00 0.00 93 1012.5
20260508110423 63 18 2.0 3.0 0.00 0.00 0.00 93 1012.4
20260508105922 63 26 0.0 3.0 0.00 0.00 0.00 93 1013.0
20260508105419 63 18 1.0 4.0 0.00 0.00 0.00 93 1013.0
20260508104916 63 261 0.0 2.0 0.00 0.00 0.00 93 1013.0
20260508104413 63 71 1.0 3.0 0.00 0.00 0.00 93 1013.1
20260508103910 63 0 0.0 2.0 0.00 0.00 0.00 93 1013.0
20260508103407 63 352 0.0 3.0 0.00 0.00 0.00 93 1013.2
20260508102904 63 14 2.0 5.0 0.00 0.00 0.00 93 1013.4
20260508102403 63 32 0.0 2.0 0.00 0.00 0.00 92 1013.5
20260508101859 63 14 2.0 3.0 0.00 0.00 0.00 92 1013.4
20260508101356 63 23 3.0 3.0 0.00 0.00 0.00 92 1013.2
20260508100854 63 7 1.0 2.0 0.00 0.00 0.00 92 1013.1
20260508100353 63 0 0.0 2.0 0.00 0.00 0.00 92 1013.2
20260508095848 63 0 0.0 4.0 0.00 0.00 0.00 92 1013.0
20260508095346 63 30 3.0 4.0 0.00 0.00 0.00 92 1013.0
20260508094842 63 48 2.0 6.0 0.00 0.00 0.00 92 1012.9
20260508094339 63 73 3.0 5.0 0.00 0.00 0.00 92 1013.0
20260508093836 63 102 3.0 5.0 0.00 0.00 0.00 91 1013.0
20260508093334 63 72 5.0 5.0 0.00 0.00 0.00 91 1013.0
20260508092831 63 90 0.0 5.0 0.00 0.00 0.00 91 1013.1
20260508092329 63 36 2.0 3.0 0.00 0.00 0.00 91 1013.1
20260508091827 63 38 2.0 3.0 0.00 0.00 0.00 91 1013.2
20260508091323 63 75 2.0 3.0 0.00 0.00 0.00 91 1013.2
20260508090821 63 74 2.0 4.0 0.00 0.00 0.00 91 1013.2
20260508090320 63 2 3.0 5.0 0.00 0.00 0.00 91 1013.2
20260508085814 63 52 2.0 5.0 0.00 0.00 0.00 91 1013.0
20260508085312 63 354 3.0 5.0 0.00 0.00 0.00 91 1013.0
20260508084808 63 8 0.0 4.0 0.00 0.00 0.00 91 1012.7
20260508084305 63 71 3.0 4.0 0.00 0.00 0.00 91 1012.9
20260508083803 63 48 2.0 5.0 0.00 0.00 0.00 91 1012.6
20260508083300 63 48 2.0 4.0 0.00 0.00 0.00 91 1012.6
20260508082759 62 71 2.0 4.0 0.00 0.00 0.00 91 1012.7
20260508082258 62 353 2.0 6.0 0.00 0.00 0.00 91 1012.6
20260508081755 62 0 3.0 4.0 0.00 0.00 0.00 92 1012.9
20260508081251 62 20 4.0 6.0 0.00 0.00 0.00 92 1012.9
20260508080748 62 28 0.0 6.0 0.00 0.00 0.00 92 1012.2
20260508080247 62 70 2.0 5.0 0.00 0.00 0.00 92 1012.6
20260508075743 62 59 5.0 5.0 0.00 0.00 0.00 92 1013.0
20260508075239 62 90 1.0 3.0 0.00 0.00 0.00 92 1013.1
20260508074737 62 99 2.0 5.0 0.00 0.00 0.00 92 1012.9
20260508074235 62 38 0.0 5.0 0.00 0.00 0.00 92 1013.1
20260508073731 62 0 0.0 5.0 0.00 0.00 0.00 92 1013.5
20260508073230 62 35 1.0 2.0 0.00 0.00 0.00 92 1013.6
20260508072725 62 350 2.0 4.0 0.00 0.00 0.00 92 1013.8
20260508072222 62 5 1.0 2.0 0.00 0.00 0.00 92 1013.7
20260508071719 62 32 0.0 4.0 0.00 0.00 0.00 92 1013.7
20260508071218 62 54 0.0 3.0 0.00 0.00 0.00 92 1013.7
20260508070715 62 22 2.0 4.0 0.00 0.00 0.00 92 1014.1
20260508070214 62 90 0.0 2.0 0.00 0.00 0.00 92 1013.8
20260508065710 62 49 3.0 4.0 0.00 0.00 0.00 92 1013.9
20260508065209 62 90 2.0 4.0 0.00 0.00 0.00 91 1013.9
20260508064706 62 30 3.0 3.0 0.00 0.00 0.00 92 1014.3
20260508064204 62 36 2.0 4.0 0.00 0.00 0.00 92 1014.0
20260508063701 62 36 2.0 3.0 0.00 0.00 0.00 92 1014.1
20260508063159 62 53 0.0 3.0 0.00 0.00 0.00 92 1013.9
20260508062656 62 0 2.0 4.0 0.00 0.00 0.00 92 1013.8
20260508062153 62 53 4.0 4.0 0.00 0.00 0.00 92 1013.8
20260508061650 62 53 3.0 6.0 0.00 0.00 0.00 92 1013.8
20260508061147 62 14 1.0 3.0 0.00 0.00 0.00 92 1013.8
20260508060644 62 45 3.0 5.0 0.00 0.00 0.00 92 1013.9
20260508060141 62 30 2.0 4.0 0.00 0.00 0.00 92 1013.6
20260508055637 62 334 2.0 4.0 0.00 0.00 0.00 92 1013.6
20260508055134 62 8 5.0 5.0 0.00 0.00 0.00 92 1013.6
20260508054630 62 54 1.0 5.0 0.00 0.00 0.00 92 1013.7
20260508054128 62 51 3.0 4.0 0.00 0.00 0.00 92 1013.6
20260508053624 62 3 2.0 5.0 0.00 0.00 0.00 92 1013.7
20260508053122 62 9 2.0 4.0 0.00 0.00 0.00 92 1013.9
20260508052619 62 63 3.0 3.0 0.00 0.00 0.00 92 1013.9
20260508052116 62 40 3.0 3.0 0.00 0.00 0.00 92 1013.6
20260508051612 62 0 1.0 3.0 0.00 0.00 0.00 92 1013.8
20260508051108 62 77 5.0 6.0 0.00 0.00 0.00 92 1013.6
20260508050604 62 75 5.0 6.0 0.00 0.00 0.00 92 1013.6
20260508045558 62 8 0.0 3.0 0.00 0.00 0.00 92 1014.3
20260508045056 62 66 1.0 6.0 0.00 0.00 0.00 92 1013.4
20260508044553 62 61 2.0 4.0 0.00 0.00 0.00 92 1014.5
20260508044049 62 18 0.0 3.0 0.00 0.00 0.00 93 1014.9
20260508043545 62 297 1.0 2.0 0.00 0.00 0.00 93 1014.8
20260508043043 62 300 0.0 3.0 0.00 0.00 0.00 92 1014.4
20260508042539 62 29 0.0 0.0 0.00 0.00 0.00 92 1014.4
20260508042037 62 29 0.0 2.0 0.00 0.00 0.00 91 1014.2
20260508041533 62 74 0.0 0.0 0.00 0.00 0.00 91 1014.3
20260508041030 62 74 0.0 2.0 0.00 0.00 0.00 91 1014.2
20260508040527 62 65 2.0 4.0 0.00 0.00 0.00 90 1014.1
20260508040024 62 27 4.0 4.0 0.00 0.00 0.00 91 1014.1
20260508035521 62 8 0.0 2.0 0.00 0.00 0.00 91 1014.2
20260508035018 62 279 0.0 0.0 0.00 0.00 0.00 91 1014.2
20260508034515 62 15 1.0 2.0 0.00 0.00 0.00 91 1014.2
20260508034012 62 348 0.0 2.0 0.00 0.00 0.00 91 1014.1
20260508033510 62 26 1.0 2.0 0.00 0.00 0.00 91 1013.8
20260508033008 62 23 0.0 2.0 0.00 0.00 0.00 90 1014.1
20260508032504 62 340 0.0 0.0 0.00 0.00 0.00 90 1013.8
20260508032002 62 8 3.0 3.0 0.00 0.00 0.00 89 1013.4
20260508031459 62 277 0.0 1.0 0.00 0.00 0.00 89 1013.5
20260508030954 62 41 2.0 4.0 0.00 0.00 0.00 89 1013.2
20260508030451 62 18 2.0 3.0 0.00 0.00 0.00 89 1013.2
20260508025949 62 0 0.0 3.0 0.00 0.00 0.00 89 1013.1
20260508025445 63 19 2.0 2.0 0.00 0.00 0.00 89 1013.4
20260508024943 63 23 1.0 3.0 0.00 0.00 0.00 88 1013.2
20260508024438 63 114 3.0 5.0 0.00 0.00 0.00 88 1013.1
20260508023935 63 65 2.0 6.0 0.00 0.00 0.00 88 1013.1
20260508023432 63 83 1.0 3.0 0.00 0.00 0.00 88 1013.3
20260508022929 63 74 1.0 3.0 0.00 0.00 0.00 88 1013.5
20260508022425 63 84 2.0 3.0 0.00 0.00 0.00 88 1013.5
20260508021922 63 90 1.0 1.0 0.00 0.00 0.00 88 1014.2
20260508021418 63 14 0.0 2.0 0.00 0.00 0.00 88 1014.0
20260508020914 63 81 0.0 3.0 0.00 0.00 0.00 87 1013.6
20260508020412 63 26 0.0 2.0 0.00 0.00 0.00 87 1013.5
20260508015909 63 71 1.0 4.0 0.00 0.00 0.00 87 1013.3
20260508015407 63 90 1.0 5.0 0.00 0.00 0.00 87 1013.3
20260508014903 63 13 3.0 3.0 0.00 0.00 0.00 87 1013.3
20260508014400 63 90 2.0 3.0 0.00 0.00 0.00 86 1013.4
20260508013855 64 40 2.0 2.0 0.00 0.00 0.00 87 1013.7
20260508013352 64 352 0.0 2.0 0.00 0.00 0.00 86 1013.9
20260508012849 64 0 0.0 2.0 0.00 0.00 0.00 85 1014.1
20260508012346 64 77 0.0 3.0 0.00 0.00 0.00 85 1013.8
20260508011844 64 90 2.0 5.0 0.00 0.00 0.00 84 1013.7
20260508011342 64 84 2.0 3.0 0.00 0.00 0.00 84 1014.1
20260508010838 64 85 4.0 4.0 0.00 0.00 0.00 84 1013.9
20260508010336 64 18 3.0 5.0 0.00 0.00 0.00 84 1014.3
20260508005833 64 53 2.0 2.0 0.00 0.00 0.00 84 1014.6
20260508005330 64 38 2.0 3.0 0.00 0.00 0.00 83 1014.3
20260508004826 65 0 1.0 5.0 0.00 0.00 0.00 83 1014.1
20260508004322 65 292 2.0 4.0 0.00 0.00 0.00 83 1014.0
20260508003813 65 8 4.0 4.0 0.00 0.00 0.00 82 1013.9
20260508003311 65 345 2.0 4.0 0.00 0.00 0.00 82 1014.1
20260508002807 66 79 3.0 4.0 0.00 0.00 0.00 81 1014.0
20260508002306 65 64 3.0 9.0 0.00 0.00 0.00 81 1013.8
20260508001800 65 80 5.0 8.0 0.00 0.00 0.00 81 1014.1
20260508001256 66 54 8.0 8.0 0.00 0.00 0.00 80 1014.4
20260508000752 66 47 3.0 6.0 0.00 0.00 0.00 80 1014.3
20260508000250 66 32 4.0 10.0 0.00 0.00 0.00 80 1014.1
20260507235746 66 69 8.0 8.0 0.00 0.00 0.00 80 1014.3
20260507235244 66 353 2.0 7.0 0.00 0.00 0.00 80 1014.5
20260507234740 66 72 4.0 7.0 0.00 0.00 0.00 79 1014.6
20260507234237 66 25 3.0 6.0 0.00 0.00 0.00 80 1014.6
20260507233733 66 26 2.0 5.0 0.00 0.00 0.00 80 1014.5
20260507233231 66 17 2.0 5.0 0.00 0.00 0.00 79 1014.8
20260507232728 67 2 3.0 5.0 0.00 0.00 0.00 78 1014.5
20260507232225 67 14 3.0 4.0 0.00 0.00 0.00 78 1014.4
20260507231722 67 0 2.0 5.0 0.00 0.00 0.00 78 1014.7
20260507231219 67 37 2.0 10.0 0.00 0.00 0.00 78 1014.9
20260507230715 67 43 5.0 11.0 0.00 0.00 0.00 77 1015.2
20260507230214 67 52 2.0 6.0 0.00 0.00 0.00 78 1014.4
20260507225712 67 90 1.0 8.0 0.00 0.00 0.00 79 1014.4
20260507225209 67 34 5.0 9.0 0.00 0.00 0.00 77 1014.6
20260507224705 68 27 4.0 7.0 0.00 0.00 0.00 76 1014.5
20260507224202 68 335 3.0 4.0 0.00 0.00 0.00 79 1014.7
20260507223658 67 349 3.0 9.0 0.00 0.00 0.00 78 1014.6
20260507223155 67 0 2.0 12.0 0.00 0.00 0.00 79 1014.5
20260507222652 67 17 4.0 8.0 0.00 0.00 0.00 78 1014.7
20260507222148 67 350 2.0 9.0 0.00 0.00 0.00 78 1014.8
20260507221644 68 40 5.0 7.0 0.00 0.00 0.00 78 1014.8
20260507221141 67 22 3.0 7.0 0.00 0.00 0.00 77 1014.9
20260507220638 67 11 3.0 5.0 0.00 0.00 0.00 78 1014.7
20260507220136 67 349 3.0 7.0 0.00 0.00 0.00 78 1014.7
20260507215632 68 3 2.0 4.0 0.00 0.00 0.00 77 1015.1
20260507215129 68 50 3.0 7.0 0.00 0.00 0.00 76 1014.9
20260507214626 68 301 0.0 11.0 0.00 0.00 0.00 78 1014.6
20260507214123 69 104 4.0 4.0 0.00 0.00 0.00 77 1014.8
20260507213619 67 0 0.0 15.0 0.00 0.00 0.00 77 1014.8
20260507213116 67 289 3.0 5.0 0.00 0.00 0.00 77 1014.6
20260507212612 66 331 2.0 13.0 0.00 0.00 0.00 79 1014.5
20260507212109 66 17 4.0 10.0 0.00 0.00 0.00 78 1014.7
20260507211606 66 50 7.0 10.0 0.00 0.00 0.00 78 1014.9
20260507211101 66 33 2.0 5.0 0.00 0.00 0.00 78 1015.0
20260507210559 66 12 4.0 7.0 0.00 0.00 0.00 77 1014.7
20260507210056 67 33 2.0 5.0 0.00 0.00 0.00 79 1014.6
20260507205552 66 27 4.0 10.0 0.00 0.00 0.00 78 1014.6
20260507205049 66 26 3.0 6.0 0.00 0.00 0.00 79 1014.8
20260507204545 66 51 3.0 9.0 0.00 0.00 0.00 79 1014.9
20260507204043 66 359 4.0 12.0 0.00 0.00 0.00 79 1014.3
20260507203541 66 45 9.0 14.0 0.00 0.00 0.00 78 1014.1
20260507203038 66 81 9.0 12.0 0.00 0.00 0.00 78 1014.8
20260507202533 66 33 5.0 8.0 0.00 0.00 0.00 79 1014.8
20260507202030 67 17 6.0 13.0 0.00 0.00 0.00 77 1015.2
20260507201525 67 349 4.0 9.0 0.00 0.00 0.00 78 1015.5
20260507201022 66 43 7.0 16.0 0.00 0.00 0.00 77 1015.6
20260507200517 67 19 4.0 10.0 0.00 0.00 0.00 77 1015.7
20260507200014 67 353 5.0 12.0 0.00 0.00 0.00 78 1015.5
20260507195511 67 71 6.0 8.0 0.00 0.00 0.00 78 1015.5
20260507195009 67 25 3.0 7.0 0.00 0.00 0.00 78 1015.8
20260507194505 67 24 2.0 11.0 0.00 0.00 0.00 78 1015.9
20260507194001 68 350 3.0 8.0 0.00 0.00 0.00 77 1015.5
20260507193458 68 351 2.0 6.0 0.00 0.00 0.00 78 1015.8
20260507192955 68 14 4.0 11.0 0.00 0.00 0.00 77 1015.3
20260507192450 68 41 4.0 13.0 0.00 0.00 0.00 76 1015.7
20260507191948 69 44 10.0 15.0 0.00 0.00 0.00 75 1015.5
20260507191443 70 342 5.0 12.0 0.00 0.00 0.00 74 1016.0
20260507190940 70 31 3.0 13.0 0.00 0.00 0.00 76 1016.1
20260507190438 70 42 5.0 11.0 0.00 0.00 0.00 75 1015.9
20260507185937 69 12 6.0 15.0 0.00 0.00 0.00 75 1015.2
20260507185434 69 51 6.0 13.0 0.00 0.00 0.00 76 1015.3
20260507184930 68 82 1.0 14.0 0.00 0.00 0.00 76 1015.3
20260507184429 68 46 4.0 14.0 0.00 0.00 0.00 76 1015.6
20260507183926 69 29 6.0 12.0 0.00 0.00 0.00 75 1015.8
20260507183422 69 75 6.0 12.0 0.00 0.00 0.00 77 1016.0
20260507182920 68 90 7.0 11.0 0.00 0.00 0.00 74 1016.3
20260507182415 69 344 7.0 12.0 0.00 0.00 0.00 75 1016.1
20260507181912 68 29 5.0 14.0 0.00 0.00 0.00 76 1016.1
20260507181408 68 359 5.0 14.0 0.00 0.00 0.00 76 1016.0
20260507180905 68 26 6.0 13.0 0.00 0.00 0.00 74 1016.3
20260507180402 68 21 5.0 15.0 0.00 0.00 0.00 75 1016.5
20260507175858 68 57 10.0 14.0 0.00 0.00 0.00 75 1016.6
20260507175354 68 60 4.0 7.0 0.00 0.00 0.00 77 1016.9
20260507174852 69 349 2.0 7.0 0.00 0.00 0.00 76 1017.2
20260507174349 69 8 5.0 15.0 0.00 0.00 0.00 75 1017.3
20260507173847 69 10 2.0 8.0 0.00 0.00 0.00 76 1017.4
20260507173344 68 90 3.0 8.0 0.00 0.00 0.00 77 1017.5
20260507172840 67 66 0.0 9.0 0.00 0.00 0.00 78 1017.0
20260507172337 67 327 3.0 11.0 0.00 0.00 0.00 78 1016.8
20260507171833 67 39 7.0 9.0 0.00 0.00 0.00 80 1017.2
20260507171330 65 39 3.0 11.0 0.00 0.00 0.00 81 1016.7
20260507170827 65 19 4.0 13.0 0.00 0.00 0.00 80 1016.6
20260507170323 65 82 5.0 13.0 0.00 0.00 0.00 81 1016.8
20260507165819 64 326 3.0 10.0 0.00 0.00 0.00 83 1017.0
20260507165315 64 328 3.0 9.0 0.00 0.00 0.00 82 1017.0
20260507164811 64 32 5.0 7.0 0.00 0.00 0.00 82 1017.2
20260507164309 64 90 5.0 11.0 0.00 0.00 0.00 81 1017.3
20260507163806 65 69 9.0 15.0 0.00 0.00 0.00 80 1017.7
20260507163303 65 13 5.0 7.0 0.00 0.00 0.00 82 1017.1
20260507162759 64 29 3.0 14.0 0.00 0.00 0.00 82 1017.6
20260507162255 64 10 4.0 9.0 0.00 0.00 0.00 83 1017.5
20260507161752 63 30 7.0 11.0 0.00 0.00 0.00 82 1017.5
20260507161249 63 62 5.0 7.0 0.00 0.00 0.00 83 1017.6
20260507160745 62 75 9.0 12.0 0.00 0.00 0.00 83 1017.3
20260507160241 62 34 5.0 11.0 0.00 0.00 0.00 83 1017.3
20260507155737 62 18 6.0 12.0 0.00 0.00 0.00 83 1017.3
20260507155233 62 2 3.0 9.0 0.00 0.00 0.00 85 1017.0
20260507154730 62 340 4.0 7.0 0.00 0.00 0.00 86 1017.3
20260507154228 61 51 4.0 12.0 0.00 0.00 0.00 86 1017.3
20260507153724 61 14 3.0 8.0 0.00 0.00 0.00 86 1017.5
20260507153221 61 21 6.0 8.0 0.00 0.00 0.00 87 1017.3
20260507152717 61 15 2.0 9.0 0.00 0.00 0.00 87 1017.1
20260507152213 61 21 2.0 7.0 0.00 0.00 0.00 86 1017.0
20260507151710 61 0 5.0 9.0 0.00 0.00 0.00 86 1016.9
20260507151206 61 353 8.0 13.0 0.00 0.00 0.00 86 1017.0
20260507150703 60 348 3.0 11.0 0.00 0.00 0.00 88 1016.4
20260507150200 60 8 6.0 14.0 0.00 0.00 0.00 88 1017.1
20260507145656 59 141 4.0 7.0 0.00 0.00 0.00 88 1017.0
20260507145153 59 22 6.0 11.0 0.00 0.00 0.00 89 1016.5
20260507144649 60 22 2.0 6.0 0.00 0.00 0.00 89 1016.6
20260507144148 59 25 6.0 13.0 0.00 0.00 0.00 89 1017.2
20260507143644 60 37 8.0 14.0 0.00 0.00 0.00 89 1017.0
20260507143141 59 66 7.0 15.0 0.00 0.00 0.00 90 1017.0
20260507142636 59 354 3.0 6.0 0.00 0.00 0.00 91 1017.3
20260507142134 59 38 9.0 16.0 0.00 0.00 0.00 91 1016.9
20260507141630 59 32 3.0 11.0 0.00 0.00 0.00 91 1017.0
20260507141127 59 45 5.0 11.0 0.00 0.00 0.00 91 1017.1
20260507140623 58 0 1.0 8.0 0.00 0.00 0.00 92 1017.0
20260507140121 58 357 5.0 13.0 0.00 0.00 0.00 92 1017.5